Satellite-Ground Cal/Val Region Overpasses Predictions

Prediction of Satellite NPP Overpassing Cal/Val Region: PacNW

Region Location: (Latitude: 10.00, Longitude: 139.50) to (Latitude: 22.70, Longitude: 165.60).

Table of predicted overpasses for the next 14.0 days since TLE Epoch: 12/25/2015
Interval Starting Time Starting Location Ending Time Ending Location
1 12/25/2015 14:48:06 ( 22.67, 163.39) 12/25/2015 14:51:41 ( 10.04, 160.40)
2 12/26/2015 03:38:40 ( 10.01, 145.56) 12/26/2015 03:42:16 ( 22.69, 142.55)
3 12/26/2015 14:32:06 ( 11.98, 165.60) 12/26/2015 14:32:39 ( 10.04, 165.15)
4 12/26/2015 16:10:34 ( 22.65, 142.77) 12/26/2015 16:14:09 ( 10.03, 139.78)
5 12/27/2015 03:19:38 ( 10.01, 150.32) 12/27/2015 03:23:14 ( 22.69, 147.31)
6 12/27/2015 15:51:31 ( 22.64, 147.53) 12/27/2015 15:55:06 ( 10.02, 144.53)
7 12/28/2015 03:00:35 ( 10.02, 155.08) 12/28/2015 03:04:10 ( 22.64, 152.08)
8 12/28/2015 15:32:28 ( 22.69, 152.30) 12/28/2015 15:36:04 ( 10.01, 149.29)
9 12/29/2015 02:41:33 ( 10.03, 159.83) 12/29/2015 02:45:08 ( 22.65, 156.84)
10 12/29/2015 15:13:25 ( 22.69, 157.05) 12/29/2015 15:17:01 ( 10.01, 154.04)
11 12/30/2015 02:22:30 ( 10.04, 164.59) 12/30/2015 02:26:05 ( 22.66, 161.59)
12 12/30/2015 14:54:23 ( 22.68, 161.81) 12/30/2015 14:57:58 ( 10.05, 158.81)
13 12/31/2015 03:44:58 ( 10.06, 143.97) 12/31/2015 03:48:33 ( 22.68, 140.97)
14 12/31/2015 14:36:28 ( 18.68, 165.59) 12/31/2015 14:38:55 ( 10.04, 163.57)
15 12/31/2015 16:16:50 ( 22.66, 141.19) 12/31/2015 16:18:48 ( 15.73, 139.51)
16 01/01/2016 03:25:54 ( 10.01, 148.74) 01/01/2016 03:29:30 ( 22.69, 145.73)
17 01/01/2016 15:57:48 ( 22.65, 145.94) 01/01/2016 16:01:23 ( 10.02, 142.95)
18 01/02/2016 03:06:52 ( 10.02, 153.49) 01/02/2016 03:10:27 ( 22.64, 150.50)
19 01/02/2016 15:38:45 ( 22.69, 150.72) 01/02/2016 15:42:21 ( 10.01, 147.70)
20 01/03/2016 02:47:49 ( 10.03, 158.25) 01/03/2016 02:51:24 ( 22.66, 155.25)
21 01/03/2016 15:19:42 ( 22.68, 155.47) 01/03/2016 15:23:17 ( 10.06, 152.47)
22 01/04/2016 02:28:47 ( 10.05, 163.00) 01/04/2016 02:32:22 ( 22.67, 160.01)
23
